Regional Weather Roundup
Issued by NWS Cleveland, OH

Home | Current Version | Previous Version | Text Only | Print | Product List | Glossary Off
Versions: 1 2 3 4 5 6 7 8 9 10 11 12 13 14 15 16 17 18 19 20 21 22 23 24 25 26 27 28 29 30 31 32 33 34 35 36 37 38 39 40 41 42 43 44 45 46 47 48 49 50

000
ASUS41 KCLE 180610
RWRCLE
OHIO REGIONAL WEATHER ROUNDUP
NATIONAL WEATHER SERVICE WILMINGTON, OH
200 AM EDT WED OCT 18 2017

NOTE: "FAIR" INDICATES FEW OR NO CLOUDS BELOW 12,000 FEET WITH NO
SIGNIFICANT WEATHER AND/OR OBSTRUCTIONS TO VISIBILITY.

OHZ001>008-015>018-024>027-034-035-043-044-180700-
   NORTHWEST OHIO

CITY           SKY/WX    TMP DP  RH WIND       PRES   REMARKS
DEFIANCE       FAIR      45  38  76 S3        30.24S
FINDLAY        FAIR      45  38  76 S7        30.25R
TOLEDO EXPRESS FAIR      51  42  71 SW6       30.22F
TOLEDO EXEC    FAIR      51  40  65 SW9       30.23F
LIMA           FAIR      48  40  73 S6        30.26S
$$

OHZ009>014-019>023-028>033-038-089-180700-
   NORTHEAST OHIO

CITY           SKY/WX    TMP DP  RH WIND       PRES   REMARKS
CLE-HOPKINS    FAIR      54  39  57 S8        30.27S
CLE-LAKEFRONT  FAIR      55  38  52 S8        30.25R
CUY CO. ARPT   NOT AVBL
LORAIN-ELYRIA  FAIR      46  35  65 S5        30.26S
ASHTABULA      FAIR      49  40  71 S6        30.27S
AKRON-CANTON   FAIR      50  38  63 SW9       30.28S
WOOSTER        FAIR      39  37  92 S3        30.29S
MANSFIELD      FAIR      46  38  73 S6        30.28R
YOUNGSTOWN     FAIR      49  39  68 S5        30.28R
$$

OHZ042-051>053-060>062-070>072-077>081-180700-
  SOUTHWEST OHIO

CITY           SKY/WX    TMP DP  RH WIND       PRES   REMARKS
CINC-COVINGTON FAIR      47  41  80 S6        30.27S
CINC-LUNKEN    FAIR      43  43 100 CALM      30.30R
HAMILTON       FAIR      38  37  97 CALM      30.28S
DAYTON         FAIR      48  42  80 S7        30.28S
WRIGHT-PAT AFB FAIR      46  41  81 SE5       30.28R
DAYTON GENERAL FAIR      47  40  76 SE3       30.27S
WILMINGTON     FAIR      44  40  85 S3        30.29R
$$

OHZ036-037-039>041-045>050-054>059-063>069-073>076-082>088-180700-
  CENTRAL AND SOUTHEAST OHIO

CITY           SKY/WX    TMP DP  RH WIND       PRES   REMARKS
COLUMBUS       FAIR      46  42  86 E3        30.29S
OSU AIRPORT    FAIR      45  42  89 CALM      30.29R
BOLTON FIELD   FAIR      41  39  92 S3        30.29S
RICKENBACK AFB FAIR      44  41  88 CALM      30.29R
NEWARK         FAIR      41  38  89 CALM      30.29S
MARION         FAIR      45  37  73 S5        30.28R
LANCASTER      FAIR      40  39  97 CALM      30.30S
ZANESVILLE     FAIR      42  38  85 CALM      30.30S
NEW PHILLY     FAIR      42  40  92 E3        30.31S
$$




USA.gov is the U.S. government's official web portal to all federal, state and local government web resources and services.